Location: Remedello Sotto
(45.2500°N, 10.3667°E)
Time: 21:50:40
(UTC+00:00)

Feng Yun 1-1 Rocket - Pass Details

Date: 03 February 2023
Orbit: 830 x 933 km, 99.1° (Epoch: 22 March)

Event Time Altitude Azimuth Distance (km) Brightness Sun altitude
Rises 18:27:34 0° 161° (SSE) 3,460 7.2 -21.2°
Reaches altitude 10° 18:29:58 10° 160° (SSE) 2,511 6.5 -21.6°
Maximum altitude 18:35:33 83° 74° (ENE) 866 4.1 -22.6°
Drops below altitude 10° 18:41:01 10° 347° (NNW) 2,469 6.8 -23.6°
Sets 18:43:22 0° 347° (NNW) 3,400 7.5 -24.0°
